Terminal Aerodrome Forecast
Issued by NWS

Home | Current Version | Previous Version | Text Only | Print | Product List | Glossary On
Versions: 1 2 3 4 5 6 7 8 9 10 11 12 13
000
FTUS42 TJSJ 052300
TAFISX
TAF
TISX 052340Z 0600/0624 07012KT P6SM SCT030
     FM061300 11016G22KT P6SM FEW025
     FM062300 06006KT P6SM FEW025
      AMD NOT SKED=

USA.gov is the U.S. government's official web portal to all federal, state and local government web resources and services.